Time,TemperatureF,DewpointF,PressureIn,WindDirection,WindDirectionDegrees,WindSpeedMPH,WindSpeedGustMPH,Humidity,HourlyPrecipIn,Conditions,Clouds,dailyrainin,SoftwareType,DateUTC
2013-03-05 00:00:00,63.7,42.4,29.70,WNW,293,3.6,8.5,46,0.00,,,0.00,WUHU216HW,2013-03-05 06:00:00,
2013-03-05 00:05:00,62.6,42.0,29.71,NW,315,6.9,8.5,47,0.00,,,0.00,WUHU216HW,2013-03-05 06:05:00,
2013-03-05 00:10:00,61.9,41.9,29.72,NNE,23,5.1,8.3,48,0.00,,,0.00,WUHU216HW,2013-03-05 06:10:00,
2013-03-05 00:15:00,61.2,41.9,29.73,North,0,4.7,8.5,49,0.00,,,0.00,WUHU216HW,2013-03-05 06:15:00,
2013-03-05 00:20:00,60.7,41.9,29.73,NW,315,5.6,8.5,50,0.00,,,0.00,WUHU216HW,2013-03-05 06:20:00,
2013-03-05 00:25:00,60.1,41.5,29.74,NW,315,2.7,5.6,50,0.00,,,0.00,WUHU216HW,2013-03-05 06:25:00,
2013-03-05 00:30:00,59.8,41.1,29.74,NE,45,6.0,6.9,50,0.00,,,0.00,WUHU216HW,2013-03-05 06:30:00,
2013-03-05 00:35:00,59.2,41.1,29.74,North,0,6.3,6.9,51,0.00,,,0.00,WUHU216HW,2013-03-05 06:35:00,
2013-03-05 00:40:00,58.7,41.6,29.75,NE,45,2.5,6.3,53,0.00,,,0.00,WUHU216HW,2013-03-05 06:40:00,
2013-03-05 00:45:00,58.3,40.8,29.75,NNW,338,1.3,6.3,52,0.00,,,0.00,WUHU216HW,2013-03-05 06:45:00,
2013-03-05 00:50:00,58.1,40.6,29.76,NNW,338,4.0,6.0,52,0.00,,,0.00,WUHU216HW,2013-03-05 06:50:00,
2013-03-05 00:55:00,57.6,40.6,29.78,North,0,5.4,10.7,53,0.00,,,0.00,WUHU216HW,2013-03-05 06:55:00,
2013-03-05 01:00:00,57.2,40.8,29.80,NW,315,4.7,10.7,54,0.00,,,0.00,WUHU216HW,2013-03-05 07:00:00,
2013-03-05 01:05:00,56.9,40.4,29.81,SW,225,4.5,6.0,54,0.00,,,0.00,WUHU216HW,2013-03-05 07:05:00,
2013-03-05 01:10:00,56.5,40.1,29.83,NNW,338,5.6,10.1,54,0.00,,,0.00,WUHU216HW,2013-03-05 07:10:00,
2013-03-05 01:15:00,56.2,39.3,29.85,North,0,4.7,10.1,53,0.00,,,0.00,WUHU216HW,2013-03-05 07:15:00,
2013-03-05 01:20:00,55.8,39.3,29.85,NE,45,5.4,7.6,54,0.00,,,0.00,WUHU216HW,2013-03-05 07:20:00,
2013-03-05 01:25:00,55.4,39.0,29.85,West,270,4.0,6.7,54,0.00,,,0.00,WUHU216HW,2013-03-05 07:25:00,
2013-03-05 01:30:00,55.1,38.6,29.86,North,0,6.5,6.7,54,0.00,,,0.00,WUHU216HW,2013-03-05 07:30:00,
2013-03-05 01:35:00,54.7,38.8,29.84,North,0,6.7,7.8,55,0.00,,,0.00,WUHU216HW,2013-03-05 07:35:00,
2013-03-05 01:40:00,54.4,38.4,29.83,WNW,293,5.4,8.9,55,0.00,,,0.00,WUHU216HW,2013-03-05 07:40:00,
2013-03-05 01:45:00,54.0,38.6,29.85,NE,45,4.9,11.2,56,0.00,,,0.00,WUHU216HW,2013-03-05 07:45:00,
2013-03-05 01:50:00,53.8,38.0,29.87,SSE,158,5.4,11.2,55,0.00,,,0.00,WUHU216HW,2013-03-05 07:50:00,
2013-03-05 01:55:00,53.6,38.3,29.89,NW,315,4.7,7.6,56,0.00,,,0.00,WUHU216HW,2013-03-05 07:55:00,
2013-03-05 02:00:00,53.6,38.3,29.89,WNW,293,4.9,8.1,56,0.00,,,0.00,WUHU216HW,2013-03-05 08:00:00,
2013-03-05 02:05:00,53.5,38.1,29.89,NE,45,4.0,8.1,56,0.00,,,0.00,WUHU216HW,2013-03-05 08:05:00,
2013-03-05 02:10:00,53.3,38.4,29.88,NE,45,10.7,10.7,57,0.00,,,0.00,WUHU216HW,2013-03-05 08:10:00,
2013-03-05 02:15:00,52.9,38.1,29.89,NNE,23,6.9,10.7,57,0.00,,,0.00,WUHU216HW,2013-03-05 08:15:00,
2013-03-05 02:20:00,52.7,37.9,29.90,NNW,338,7.8,11.0,57,0.00,,,0.00,WUHU216HW,2013-03-05 08:20:00,
2013-03-05 02:25:00,52.6,37.7,29.90,North,0,7.2,11.0,57,0.00,,,0.00,WUHU216HW,2013-03-05 08:25:00,
2013-03-05 02:30:00,52.4,37.5,29.89,ENE,68,6.9,10.3,57,0.00,,,0.00,WUHU216HW,2013-03-05 08:30:00,
2013-03-05 02:35:00,52.2,36.9,29.89,ENE,68,5.6,12.1,56,0.00,,,0.00,WUHU216HW,2013-03-05 08:35:00,
2013-03-05 02:40:00,52.2,36.5,29.89,NNE,23,6.7,12.1,55,0.00,,,0.00,WUHU216HW,2013-03-05 08:40:00,
2013-03-05 02:45:00,52.0,36.3,29.89,West,270,8.1,10.3,55,0.00,,,0.00,WUHU216HW,2013-03-05 08:45:00,
2013-03-05 02:50:00,52.0,36.3,29.90,NNE,23,4.0,8.1,55,0.00,,,0.00,WUHU216HW,2013-03-05 08:50:00,
2013-03-05 02:55:00,51.8,36.1,29.91,ESE,113,9.6,9.6,55,0.00,,,0.00,WUHU216HW,2013-03-05 08:55:00,
2013-03-05 03:00:00,51.8,35.6,29.91,WNW,293,7.6,10.5,54,0.00,,,0.00,WUHU216HW,2013-03-05 09:00:00,
2013-03-05 03:05:00,51.8,35.2,29.92,NW,315,4.7,12.1,53,0.00,,,0.00,WUHU216HW,2013-03-05 09:05:00,
2013-03-05 03:10:00,51.8,35.2,29.93,NE,45,8.5,12.1,53,0.00,,,0.00,WUHU216HW,2013-03-05 09:10:00,
2013-03-05 03:15:00,51.8,34.7,29.95,ESE,113,7.6,8.7,52,0.00,,,0.00,WUHU216HW,2013-03-05 09:15:00,
2013-03-05 03:20:00,51.8,34.7,29.96,WSW,248,5.1,9.6,52,0.00,,,0.00,WUHU216HW,2013-03-05 09:20:00,
2013-03-05 03:25:00,51.8,34.3,29.98,North,0,6.9,10.3,51,0.00,,,0.00,WUHU216HW,2013-03-05 09:25:00,
2013-03-05 03:30:00,51.8,34.3,29.98,NNE,23,6.3,10.3,51,0.00,,,0.00,WUHU216HW,2013-03-05 09:30:00,
2013-03-05 03:35:00,51.8,34.3,29.98,ESE,113,3.4,7.2,51,0.00,,,0.00,WUHU216HW,2013-03-05 09:35:00,
2013-03-05 03:40:00,51.8,34.3,29.99,NNE,23,5.4,5.4,51,0.00,,,0.00,WUHU216HW,2013-03-05 09:40:00,
2013-03-05 03:45:00,51.8,33.8,29.99,NNE,23,6.9,6.9,50,0.00,,,0.00,WUHU216HW,2013-03-05 09:45:00,
2013-03-05 03:50:00,51.8,33.8,29.98,NNE,23,7.6,7.6,50,0.00,,,0.00,WUHU216HW,2013-03-05 09:50:00,
2013-03-05 03:55:00,51.7,34.1,30.01,NNW,338,3.8,7.6,51,0.00,,,0.00,WUHU216HW,2013-03-05 09:55:00,
2013-03-05 04:00:00,51.7,34.1,30.01,ENE,68,5.4,6.0,51,0.00,,,0.00,WUHU216HW,2013-03-05 10:00:00,
2013-03-05 04:05:00,51.7,34.1,30.01,North,0,5.8,7.2,51,0.00,,,0.00,WUHU216HW,2013-03-05 10:05:00,
2013-03-05 04:10:00,51.7,34.1,30.01,North,0,3.8,7.2,51,0.00,,,0.00,WUHU216HW,2013-03-05 10:10:00,
2013-03-05 04:15:00,51.5,33.9,30.01,NNW,338,2.5,6.9,51,0.00,,,0.00,WUHU216HW,2013-03-05 10:15:00,
2013-03-05 04:20:00,51.5,34.4,30.02,NW,315,4.3,6.9,52,0.00,,,0.00,WUHU216HW,2013-03-05 10:20:00,
2013-03-05 04:25:00,51.3,34.3,30.02,SSE,158,1.6,6.9,52,0.00,,,0.00,WUHU216HW,2013-03-05 10:25:00,
2013-03-05 04:30:00,51.1,34.1,30.02,NE,45,4.7,6.9,52,0.00,,,0.00,WUHU216HW,2013-03-05 10:30:00,
2013-03-05 04:35:00,50.8,33.8,30.02,West,270,5.4,11.6,52,0.00,,,0.00,WUHU216HW,2013-03-05 10:35:00,
2013-03-05 04:40:00,50.8,33.8,30.02,North,0,1.6,11.6,52,0.00,,,0.00,WUHU216HW,2013-03-05 10:40:00,
2013-03-05 04:45:00,50.8,34.2,30.03,North,0,3.6,6.3,53,0.00,,,0.00,WUHU216HW,2013-03-05 10:45:00,
2013-03-05 04:50:00,50.6,34.0,30.04,North,0,4.0,6.3,53,0.00,,,0.00,WUHU216HW,2013-03-05 10:50:00,
2013-03-05 04:55:00,50.6,34.0,30.04,WSW,248,3.4,4.0,53,0.00,,,0.00,WUHU216HW,2013-03-05 10:55:00,
2013-03-05 05:00:00,50.4,33.9,30.04,NW,315,0.7,4.9,53,0.00,,,0.00,WUHU216HW,2013-03-05 11:00:00,
2013-03-05 05:05:00,50.4,33.9,30.04,East,90,1.1,4.9,53,0.00,,,0.00,WUHU216HW,2013-03-05 11:05:00,
2013-03-05 05:10:00,50.2,33.8,30.04,NNE,23,4.7,4.7,53,0.00,,,0.00,WUHU216HW,2013-03-05 11:10:00,
2013-03-05 05:15:00,50.2,33.8,30.04,NNE,23,1.1,5.6,53,0.00,,,0.00,WUHU216HW,2013-03-05 11:15:00,
2013-03-05 05:20:00,50.0,33.6,30.05,WNW,293,1.8,5.6,53,0.00,,,0.00,WUHU216HW,2013-03-05 11:20:00,
2013-03-05 05:25:00,50.0,33.6,30.05,NNE,23,3.1,6.5,53,0.00,,,0.00,WUHU216HW,2013-03-05 11:25:00,
2013-03-05 05:30:00,49.9,32.9,30.05,NNE,23,4.3,6.5,52,0.00,,,0.00,WUHU216HW,2013-03-05 11:30:00,
2013-03-05 05:35:00,49.9,32.9,30.05,North,0,1.8,5.6,52,0.00,,,0.00,WUHU216HW,2013-03-05 11:35:00,
2013-03-05 05:40:00,49.7,32.8,30.06,NNW,338,1.8,4.0,52,0.00,,,0.00,WUHU216HW,2013-03-05 11:40:00,
2013-03-05 05:45:00,49.5,31.7,30.07,North,0,5.8,8.5,50,0.00,,,0.00,WUHU216HW,2013-03-05 11:45:00,
2013-03-05 05:50:00,49.3,31.0,30.07,ESE,113,3.1,8.5,49,0.00,,,0.00,WUHU216HW,2013-03-05 11:50:00,
2013-03-05 05:55:00,49.3,31.0,30.07,NE,45,0.7,8.5,49,0.00,,,0.00,WUHU216HW,2013-03-05 11:55:00,
2013-03-05 06:00:00,49.3,31.0,30.08,NW,315,4.9,4.9,49,0.00,,,0.00,WUHU216HW,2013-03-05 12:00:00,
2013-03-05 06:05:00,49.1,30.8,30.09,NE,45,3.6,4.9,49,0.00,,,0.00,WUHU216HW,2013-03-05 12:05:00,
2013-03-05 06:10:00,49.0,30.6,30.09,NNE,23,4.5,6.0,49,0.00,,,0.00,WUHU216HW,2013-03-05 12:10:00,
2013-03-05 06:15:00,48.8,29.9,30.09,NE,45,4.0,7.8,48,0.00,,,0.00,WUHU216HW,2013-03-05 12:15:00,
2013-03-05 06:20:00,48.6,30.3,30.09,NW,315,1.8,7.8,49,0.00,,,0.00,WUHU216HW,2013-03-05 12:20:00,
2013-03-05 06:25:00,48.6,30.3,30.09,NE,45,4.0,5.6,49,0.00,,,0.00,WUHU216HW,2013-03-05 12:25:00,
2013-03-05 06:30:00,48.6,30.3,30.10,NNW,338,4.5,4.9,49,0.00,,,0.00,WUHU216HW,2013-03-05 12:30:00,
2013-03-05 06:35:00,48.2,29.9,30.11,NE,45,6.5,7.6,49,0.00,,,0.00,WUHU216HW,2013-03-05 12:35:00,
2013-03-05 06:40:00,48.2,29.9,30.11,WNW,293,2.7,7.6,49,0.00,,,0.00,WUHU216HW,2013-03-05 12:40:00,
2013-03-05 06:45:00,48.1,29.7,30.11,ENE,68,2.9,4.0,49,0.00,,,0.00,WUHU216HW,2013-03-05 12:45:00,
2013-03-05 06:50:00,47.9,29.5,30.11,ENE,68,4.0,5.6,49,0.00,,,0.00,WUHU216HW,2013-03-05 12:50:00,
2013-03-05 06:55:00,47.9,30.1,30.12,NNE,23,4.3,7.4,50,0.00,,,0.00,WUHU216HW,2013-03-05 12:55:00,
2013-03-05 07:00:00,47.7,30.0,30.12,NNE,23,3.6,7.4,50,0.00,,,0.00,WUHU216HW,2013-03-05 13:00:00,
2013-03-05 07:05:00,47.7,30.0,30.12,NNW,338,3.6,5.8,50,0.00,,,0.00,WUHU216HW,2013-03-05 13:05:00,
2013-03-05 07:10:00,47.5,29.8,30.13,NE,45,5.1,5.1,50,0.00,,,0.00,WUHU216HW,2013-03-05 13:10:00,
2013-03-05 07:15:00,47.5,29.8,30.13,NW,315,4.0,5.1,50,0.00,,,0.00,WUHU216HW,2013-03-05 13:15:00,
2013-03-05 07:20:00,47.5,29.8,30.14,WNW,293,4.3,5.8,50,0.00,,,0.00,WUHU216HW,2013-03-05 13:20:00,
2013-03-05 07:25:00,47.7,30.0,30.14,NNW,338,7.2,7.2,50,0.00,,,0.00,WUHU216HW,2013-03-05 13:25:00,
2013-03-05 07:30:00,48.1,30.2,30.14,NW,315,5.1,7.2,50,0.00,,,0.00,WUHU216HW,2013-03-05 13:30:00,
2013-03-05 07:35:00,48.6,30.8,30.14,NE,45,4.5,5.4,50,0.00,,,0.00,WUHU216HW,2013-03-05 13:35:00,
2013-03-05 07:40:00,49.0,31.1,30.14,West,270,5.6,5.6,50,0.00,,,0.00,WUHU216HW,2013-03-05 13:40:00,
2013-03-05 07:45:00,49.3,31.0,30.14,East,90,2.5,6.3,49,0.00,,,0.00,WUHU216HW,2013-03-05 13:45:00,
2013-03-05 07:50:00,49.9,31.5,30.14,North,0,5.4,6.3,49,0.00,,,0.00,WUHU216HW,2013-03-05 13:50:00,
2013-03-05 07:55:00,50.0,31.2,30.15,NNE,23,3.4,5.4,48,0.00,,,0.00,WUHU216HW,2013-03-05 13:55:00,
2013-03-05 08:00:00,49.9,31.0,30.15,WNW,293,2.9,5.4,48,0.00,,,0.00,WUHU216HW,2013-03-05 14:00:00,
2013-03-05 08:05:00,49.7,30.8,30.15,NW,315,2.2,7.8,48,0.00,,,0.00,WUHU216HW,2013-03-05 14:05:00,
2013-03-05 08:10:00,49.5,30.6,30.16,NE,45,4.0,7.8,48,0.00,,,0.00,WUHU216HW,2013-03-05 14:10:00,
2013-03-05 08:15:00,49.3,31.0,30.16,NE,45,5.8,6.9,49,0.00,,,0.00,WUHU216HW,2013-03-05 14:15:00,
2013-03-05 08:20:00,49.3,31.0,30.16,NNE,23,1.8,6.9,49,0.00,,,0.00,WUHU216HW,2013-03-05 14:20:00,
2013-03-05 08:25:00,49.7,31.3,30.17,NE,45,2.5,4.3,49,0.00,,,0.00,WUHU216HW,2013-03-05 14:25:00,
2013-03-05 08:30:00,49.5,30.6,30.17,NNW,338,1.1,7.6,48,0.00,,,0.00,WUHU216HW,2013-03-05 14:30:00,
2013-03-05 08:35:00,49.5,30.1,30.17,NNW,338,8.5,8.5,47,0.00,,,0.00,WUHU216HW,2013-03-05 14:35:00,
2013-03-05 08:40:00,49.5,29.4,30.17,WSW,248,4.7,8.5,46,0.00,,,0.00,WUHU216HW,2013-03-05 14:40:00,
2013-03-05 08:45:00,49.5,29.4,30.17,NW,315,3.1,6.0,46,0.00,,,0.00,WUHU216HW,2013-03-05 14:45:00,
2013-03-05 08:50:00,49.5,29.4,30.17,NW,315,5.1,5.1,46,0.00,,,0.00,WUHU216HW,2013-03-05 14:50:00,
2013-03-05 08:55:00,49.5,29.4,30.18,NNW,338,4.5,5.6,46,0.00,,,0.00,WUHU216HW,2013-03-05 14:55:00,
2013-03-05 09:00:00,49.5,28.9,30.18,NE,45,4.0,5.6,45,0.00,,,0.00,WUHU216HW,2013-03-05 15:00:00,
2013-03-05 09:05:00,49.5,28.9,30.19,NNW,338,1.8,6.5,45,0.00,,,0.00,WUHU216HW,2013-03-05 15:05:00,
2013-03-05 09:10:00,49.5,28.4,30.19,WNW,293,5.8,7.6,44,0.00,,,0.00,WUHU216HW,2013-03-05 15:10:00,
2013-03-05 09:15:00,49.5,27.3,30.19,NNE,23,5.4,7.6,42,0.00,,,0.00,WUHU216HW,2013-03-05 15:15:00,
2013-03-05 09:20:00,49.3,27.1,30.19,NE,45,6.0,7.2,42,0.00,,,0.00,WUHU216HW,2013-03-05 15:20:00,
2013-03-05 09:25:00,49.3,27.1,30.19,WSW,248,5.4,7.2,42,0.00,,,0.00,WUHU216HW,2013-03-05 15:25:00,
2013-03-05 09:30:00,49.7,27.5,30.19,SW,225,4.9,7.2,42,0.00,,,0.00,WUHU216HW,2013-03-05 15:30:00,
2013-03-05 09:35:00,49.9,27.0,30.19,WNW,293,4.7,8.7,41,0.00,,,0.00,WUHU216HW,2013-03-05 15:35:00,
2013-03-05 09:40:00,49.9,26.5,30.20,NNW,338,4.7,8.7,40,0.00,,,0.00,WUHU216HW,2013-03-05 15:40:00,
2013-03-05 09:45:00,50.2,26.8,30.20,NW,315,3.8,4.9,40,0.00,,,0.00,WUHU216HW,2013-03-05 15:45:00,
2013-03-05 09:50:00,50.8,27.8,30.21,NE,45,6.3,6.3,41,0.00,,,0.00,WUHU216HW,2013-03-05 15:50:00,
2013-03-05 09:55:00,50.8,27.3,30.21,NW,315,2.5,8.3,40,0.00,,,0.00,WUHU216HW,2013-03-05 15:55:00,
2013-03-05 10:00:00,50.9,27.5,30.22,NNW,338,5.4,8.3,40,0.00,,,0.00,WUHU216HW,2013-03-05 16:00:00,
2013-03-05 10:05:00,51.1,27.6,30.21,SE,135,7.4,7.4,40,0.00,,,0.00,WUHU216HW,2013-03-05 16:05:00,
2013-03-05 10:10:00,51.1,26.9,30.22,WSW,248,5.4,8.3,39,0.00,,,0.00,WUHU216HW,2013-03-05 16:10:00,
2013-03-05 10:15:00,51.1,25.6,30.22,NNE,23,1.3,8.3,37,0.00,,,0.00,WUHU216HW,2013-03-05 16:15:00,
2013-03-05 10:20:00,51.1,24.8,30.22,NW,315,4.3,8.1,36,0.00,,,0.00,WUHU216HW,2013-03-05 16:20:00,
2013-03-05 10:25:00,51.5,25.9,30.23,NE,45,3.8,7.6,37,0.00,,,0.00,WUHU216HW,2013-03-05 16:25:00,
2013-03-05 10:30:00,51.8,24.1,30.23,NNW,338,5.4,5.6,34,0.00,,,0.00,WUHU216HW,2013-03-05 16:30:00,
2013-03-05 10:35:00,52.0,25.0,30.24,North,0,3.6,5.4,35,0.00,,,0.00,WUHU216HW,2013-03-05 16:35:00,
2013-03-05 10:40:00,52.2,26.6,30.24,SSE,158,1.1,8.3,37,0.00,,,0.00,WUHU216HW,2013-03-05 16:40:00,
2013-03-05 10:45:00,52.4,26.0,30.24,NW,315,7.2,8.3,36,0.00,,,0.00,WUHU216HW,2013-03-05 16:45:00,
2013-03-05 10:50:00,52.6,26.2,30.24,NE,45,6.3,7.2,36,0.00,,,0.00,WUHU216HW,2013-03-05 16:50:00,
2013-03-05 10:55:00,52.7,24.9,30.24,NNW,338,4.7,6.9,34,0.00,,,0.00,WUHU216HW,2013-03-05 16:55:00,
2013-03-05 11:00:00,52.9,26.5,30.24,NE,45,5.6,8.7,36,0.00,,,0.00,WUHU216HW,2013-03-05 17:00:00,
2013-03-05 11:05:00,53.1,25.3,30.24,North,0,6.5,8.7,34,0.00,,,0.00,WUHU216HW,2013-03-05 17:05:00,
2013-03-05 11:10:00,53.3,24.8,30.24,North,0,2.9,6.5,33,0.00,,,0.00,WUHU216HW,2013-03-05 17:10:00,
2013-03-05 11:15:00,53.3,25.5,30.24,North,0,2.2,6.3,34,0.00,,,0.00,WUHU216HW,2013-03-05 17:15:00,
2013-03-05 11:20:00,53.6,25.7,30.25,NNW,338,2.9,7.4,34,0.00,,,0.00,WUHU216HW,2013-03-05 17:20:00,
2013-03-05 11:25:00,53.6,24.4,30.25,NNE,23,5.4,7.6,32,0.00,,,0.00,WUHU216HW,2013-03-05 17:25:00,
2013-03-05 11:30:00,54.0,24.7,30.24,WNW,293,6.7,7.6,32,0.00,,,0.00,WUHU216HW,2013-03-05 17:30:00,
2013-03-05 11:35:00,54.2,25.6,30.25,North,0,3.8,6.7,33,0.00,,,0.00,WUHU216HW,2013-03-05 17:35:00,
2013-03-05 11:40:00,54.2,24.8,30.25,NNW,338,1.8,8.3,32,0.00,,,0.00,WUHU216HW,2013-03-05 17:40:00,
2013-03-05 11:45:00,54.4,25.7,30.25,NNW,338,2.5,8.3,33,0.00,,,0.00,WUHU216HW,2013-03-05 17:45:00,
2013-03-05 11:50:00,54.5,24.5,30.25,NNW,338,2.7,6.3,31,0.00,,,0.00,WUHU216HW,2013-03-05 17:50:00,
2013-03-05 11:55:00,54.7,25.3,30.25,WNW,293,1.8,6.3,32,0.00,,,0.00,WUHU216HW,2013-03-05 17:55:00,
2013-03-05 12:00:00,54.7,24.6,30.25,WNW,293,7.6,7.6,31,0.00,,,0.00,WUHU216HW,2013-03-05 18:00:00,
2013-03-05 12:05:00,54.7,24.6,30.24,NNW,338,3.4,7.6,31,0.00,,,0.00,WUHU216HW,2013-03-05 18:05:00,
2013-03-05 12:10:00,54.9,24.0,30.24,NNW,338,2.9,6.7,30,0.00,,,0.00,WUHU216HW,2013-03-05 18:10:00,
2013-03-05 12:15:00,55.1,24.2,30.25,West,270,3.4,7.8,30,0.00,,,0.00,WUHU216HW,2013-03-05 18:15:00,
2013-03-05 12:20:00,55.1,23.2,30.25,North,0,7.4,7.8,29,0.00,,,0.00,WUHU216HW,2013-03-05 18:20:00,
2013-03-05 12:25:00,55.3,21.5,30.25,North,0,5.8,7.6,27,0.00,,,0.00,WUHU216HW,2013-03-05 18:25:00,
2013-03-05 12:30:00,55.3,23.4,30.24,NNE,23,4.7,7.6,29,0.00,,,0.00,WUHU216HW,2013-03-05 18:30:00,
2013-03-05 12:35:00,55.4,22.6,30.25,NW,315,3.8,7.2,28,0.00,,,0.00,WUHU216HW,2013-03-05 18:35:00,
2013-03-05 12:40:00,55.4,23.6,30.24,NNW,338,3.6,7.2,29,0.00,,,0.00,WUHU216HW,2013-03-05 18:40:00,
2013-03-05 12:45:00,55.6,21.9,30.24,NE,45,5.1,6.9,27,0.00,,,0.00,WUHU216HW,2013-03-05 18:45:00,
2013-03-05 12:50:00,55.4,21.7,30.24,WNW,293,7.4,7.4,27,0.00,,,0.00,WUHU216HW,2013-03-05 18:50:00,
2013-03-05 12:55:00,55.4,21.7,30.24,NE,45,4.9,7.4,27,0.00,,,0.00,WUHU216HW,2013-03-05 18:55:00,
2013-03-05 13:00:00,55.6,22.8,30.24,East,90,5.4,8.5,28,0.00,,,0.00,WUHU216HW,2013-03-05 19:00:00,
2013-03-05 13:05:00,55.8,22.0,30.24,NNE,23,6.0,8.5,27,0.00,,,0.00,WUHU216HW,2013-03-05 19:05:00,
2013-03-05 13:10:00,55.8,23.0,30.23,NW,315,6.0,6.5,28,0.00,,,0.00,WUHU216HW,2013-03-05 19:10:00,
2013-03-05 13:15:00,56.0,23.0,30.23,NNW,338,2.5,6.0,28,0.00,,,0.00,WUHU216HW,2013-03-05 19:15:00,
2013-03-05 13:20:00,56.3,23.4,30.23,NNE,23,4.0,6.0,28,0.00,,,0.00,WUHU216HW,2013-03-05 19:20:00,
2013-03-05 13:25:00,56.5,22.6,30.22,North,0,2.5,6.3,27,0.00,,,0.00,WUHU216HW,2013-03-05 19:25:00,
2013-03-05 13:30:00,56.7,22.8,30.23,West,270,4.0,6.3,27,0.00,,,0.00,WUHU216HW,2013-03-05 19:30:00,
2013-03-05 13:35:00,56.9,23.0,30.22,ENE,68,2.0,6.3,27,0.00,,,0.00,WUHU216HW,2013-03-05 19:35:00,
2013-03-05 13:40:00,56.9,23.0,30.22,North,0,2.7,6.9,27,0.00,,,0.00,WUHU216HW,2013-03-05 19:40:00,
2013-03-05 13:45:00,56.9,23.0,30.22,NW,315,4.9,6.9,27,0.00,,,0.00,WUHU216HW,2013-03-05 19:45:00,
2013-03-05 13:50:00,57.1,23.0,30.22,NNW,338,4.3,5.4,27,0.00,,,0.00,WUHU216HW,2013-03-05 19:50:00,
2013-03-05 13:55:00,57.1,23.0,30.21,North,0,3.1,5.4,27,0.00,,,0.00,WUHU216HW,2013-03-05 19:55:00,
2013-03-05 14:00:00,57.2,23.2,30.21,NE,45,1.1,5.4,27,0.00,,,0.00,WUHU216HW,2013-03-05 20:00:00,
2013-03-05 14:05:00,57.2,21.3,30.21,NNW,338,2.7,5.8,25,0.00,,,0.00,WUHU216HW,2013-03-05 20:05:00,
2013-03-05 14:10:00,57.2,22.3,30.21,NNW,338,3.4,7.2,26,0.00,,,0.00,WUHU216HW,2013-03-05 20:10:00,
2013-03-05 14:15:00,57.2,23.2,30.21,NNE,23,4.0,7.2,27,0.00,,,0.00,WUHU216HW,2013-03-05 20:15:00,
2013-03-05 14:20:00,57.4,23.4,30.21,South,180,2.0,4.3,27,0.00,,,0.00,WUHU216HW,2013-03-05 20:20:00,
2013-03-05 14:25:00,57.6,23.6,30.21,SW,225,3.1,7.4,27,0.00,,,0.00,WUHU216HW,2013-03-05 20:25:00,
2013-03-05 14:30:00,57.8,23.7,30.21,WNW,293,3.8,7.4,27,0.00,,,0.00,WUHU216HW,2013-03-05 20:30:00,
2013-03-05 14:35:00,57.8,22.8,30.20,ESE,113,5.4,5.4,26,0.00,,,0.00,WUHU216HW,2013-03-05 20:35:00,
2013-03-05 14:40:00,57.8,21.8,30.20,WSW,248,4.0,5.4,25,0.00,,,0.00,WUHU216HW,2013-03-05 20:40:00,
2013-03-05 14:45:00,58.0,22.0,30.20,North,0,3.8,4.0,25,0.00,,,0.00,WUHU216HW,2013-03-05 20:45:00,
2013-03-05 14:50:00,57.8,21.8,30.20,NNW,338,2.7,7.6,25,0.00,,,0.00,WUHU216HW,2013-03-05 20:50:00,
2013-03-05 14:55:00,57.8,21.8,30.20,NNE,23,2.0,7.6,25,0.00,,,0.00,WUHU216HW,2013-03-05 20:55:00,
2013-03-05 15:00:00,57.8,21.8,30.20,WNW,293,4.3,5.1,25,0.00,,,0.00,WUHU216HW,2013-03-05 21:00:00,
2013-03-05 15:05:00,57.8,21.8,30.20,SW,225,2.9,7.4,25,0.00,,,0.00,WUHU216HW,2013-03-05 21:05:00,
2013-03-05 15:10:00,57.4,19.5,30.20,NNE,23,2.5,8.5,23,0.00,,,0.00,WUHU216HW,2013-03-05 21:10:00,
2013-03-05 15:15:00,57.4,21.5,30.20,NNW,338,2.5,8.5,25,0.00,,,0.00,WUHU216HW,2013-03-05 21:15:00,
2013-03-05 15:20:00,57.2,21.3,30.20,WNW,293,2.5,4.5,25,0.00,,,0.00,WUHU216HW,2013-03-05 21:20:00,
2013-03-05 15:25:00,57.2,21.3,30.19,SSW,203,6.3,6.3,25,0.00,,,0.00,WUHU216HW,2013-03-05 21:25:00,
2013-03-05 15:30:00,57.2,21.3,30.19,NW,315,3.4,6.3,25,0.00,,,0.00,WUHU216HW,2013-03-05 21:30:00,
2013-03-05 15:35:00,57.2,21.3,30.20,NNW,338,6.7,6.7,25,0.00,,,0.00,WUHU216HW,2013-03-05 21:35:00,
2013-03-05 15:40:00,57.4,21.5,30.19,NNE,23,6.0,6.7,25,0.00,,,0.00,WUHU216HW,2013-03-05 21:40:00,
2013-03-05 15:45:00,57.2,20.3,30.19,WNW,293,3.8,6.0,24,0.00,,,0.00,WUHU216HW,2013-03-05 21:45:00,
2013-03-05 15:50:00,57.2,21.3,30.19,North,0,3.4,5.6,25,0.00,,,0.00,WUHU216HW,2013-03-05 21:50:00,
2013-03-05 15:55:00,57.6,21.6,30.19,NNE,23,3.4,8.3,25,0.00,,,0.00,WUHU216HW,2013-03-05 21:55:00,
2013-03-05 16:00:00,57.6,21.6,30.19,WNW,293,0.9,8.3,25,0.00,,,0.00,WUHU216HW,2013-03-05 22:00:00,
2013-03-05 16:05:00,57.8,21.8,30.19,NW,315,3.4,6.9,25,0.00,,,0.00,WUHU216HW,2013-03-05 22:05:00,
2013-03-05 16:10:00,58.0,22.0,30.19,NE,45,3.8,6.9,25,0.00,,,0.00,WUHU216HW,2013-03-05 22:10:00,
2013-03-05 16:15:00,57.8,21.8,30.19,NNE,23,1.1,5.1,25,0.00,,,0.00,WUHU216HW,2013-03-05 22:15:00,
2013-03-05 16:20:00,58.0,22.0,30.19,West,270,4.0,5.1,25,0.00,,,0.00,WUHU216HW,2013-03-05 22:20:00,
2013-03-05 16:25:00,57.6,21.6,30.19,NW,315,4.0,5.6,25,0.00,,,0.00,WUHU216HW,2013-03-05 22:25:00,
2013-03-05 16:30:00,57.4,21.5,30.19,ESE,113,3.4,5.8,25,0.00,,,0.00,WUHU216HW,2013-03-05 22:30:00,
2013-03-05 16:35:00,57.4,21.5,30.19,NW,315,3.1,5.8,25,0.00,,,0.00,WUHU216HW,2013-03-05 22:35:00,
2013-03-05 16:40:00,57.2,21.3,30.19,SSW,203,3.1,4.7,25,0.00,,,0.00,WUHU216HW,2013-03-05 22:40:00,
2013-03-05 16:45:00,57.2,21.3,30.19,NNW,338,2.2,4.3,25,0.00,,,0.00,WUHU216HW,2013-03-05 22:45:00,
2013-03-05 16:50:00,57.2,21.3,30.19,NE,45,2.2,7.4,25,0.00,,,0.00,WUHU216HW,2013-03-05 22:50:00,
2013-03-05 16:55:00,57.2,21.3,30.19,NW,315,6.0,7.4,25,0.00,,,0.00,WUHU216HW,2013-03-05 22:55:00,
2013-03-05 17:00:00,57.1,21.2,30.19,NNE,23,1.1,6.3,25,0.00,,,0.00,WUHU216HW,2013-03-05 23:00:00,
2013-03-05 17:05:00,57.1,21.2,30.19,NNW,338,2.5,6.0,25,0.00,,,0.00,WUHU216HW,2013-03-05 23:05:00,
2013-03-05 17:10:00,57.1,21.2,30.19,NNE,23,2.5,6.0,25,0.00,,,0.00,WUHU216HW,2013-03-05 23:10:00,
2013-03-05 17:15:00,57.1,21.2,30.19,WNW,293,1.6,5.6,25,0.00,,,0.00,WUHU216HW,2013-03-05 23:15:00,
2013-03-05 17:20:00,56.9,21.1,30.19,NE,45,5.6,5.6,25,0.00,,,0.00,WUHU216HW,2013-03-05 23:20:00,
2013-03-05 17:25:00,56.7,20.9,30.19,ENE,68,2.5,5.6,25,0.00,,,0.00,WUHU216HW,2013-03-05 23:25:00,
2013-03-05 17:30:00,56.7,20.9,30.20,NNE,23,1.1,5.6,25,0.00,,,0.00,WUHU216HW,2013-03-05 23:30:00,
2013-03-05 17:35:00,56.5,20.7,30.19,NNE,23,4.0,5.8,25,0.00,,,0.00,WUHU216HW,2013-03-05 23:35:00,
2013-03-05 17:40:00,56.5,20.7,30.19,NNW,338,3.8,5.8,25,0.00,,,0.00,WUHU216HW,2013-03-05 23:40:00,
2013-03-05 17:45:00,56.5,21.7,30.19,North,0,0.4,5.1,26,0.00,,,0.00,WUHU216HW,2013-03-05 23:45:00,
2013-03-05 17:50:00,56.3,21.5,30.19,WNW,293,2.5,4.5,26,0.00,,,0.00,WUHU216HW,2013-03-05 23:50:00,
2013-03-05 17:55:00,56.2,22.3,30.19,ENE,68,1.6,4.5,27,0.00,,,0.00,WUHU216HW,2013-03-05 23:55:00,
2013-03-05 18:00:00,56.2,22.3,30.20,NNW,338,3.4,6.5,27,0.00,,,0.00,WUHU216HW,2013-03-06 00:00:00,
2013-03-05 18:05:00,56.0,22.1,30.20,WNW,293,1.1,6.5,27,0.00,,,0.00,WUHU216HW,2013-03-06 00:05:00,
2013-03-05 18:10:00,56.0,22.1,30.20,NW,315,2.0,4.7,27,0.00,,,0.00,WUHU216HW,2013-03-06 00:10:00,
2013-03-05 18:15:00,55.8,23.0,30.20,North,0,0.7,3.8,28,0.00,,,0.00,WUHU216HW,2013-03-06 00:15:00,
2013-03-05 18:20:00,55.6,22.8,30.20,NNW,338,0.4,3.8,28,0.00,,,0.00,WUHU216HW,2013-03-06 00:20:00,
2013-03-05 18:25:00,55.6,22.8,30.20,West,270,3.4,4.7,28,0.00,,,0.00,WUHU216HW,2013-03-06 00:25:00,
2013-03-05 18:30:00,55.4,22.6,30.20,ENE,68,0.9,4.7,28,0.00,,,0.00,WUHU216HW,2013-03-06 00:30:00,
2013-03-05 18:35:00,55.3,22.5,30.21,NNE,23,0.4,2.5,28,0.00,,,0.00,WUHU216HW,2013-03-06 00:35:00,
2013-03-05 18:40:00,55.1,22.3,30.21,NW,315,2.5,2.5,28,0.00,,,0.00,WUHU216HW,2013-03-06 00:40:00,
2013-03-05 18:45:00,55.1,23.2,30.21,NNW,338,0.9,2.5,29,0.00,,,0.00,WUHU216HW,2013-03-06 00:45:00,
2013-03-05 18:50:00,54.9,23.1,30.21,NNE,23,0.2,2.5,29,0.00,,,0.00,WUHU216HW,2013-03-06 00:50:00,
2013-03-05 18:55:00,54.7,23.0,30.21,ESE,113,2.5,2.5,29,0.00,,,0.00,WUHU216HW,2013-03-06 00:55:00,
2013-03-05 19:00:00,54.7,23.0,30.21,North,0,1.8,2.5,29,0.00,,,0.00,WUHU216HW,2013-03-06 01:00:00,
2013-03-05 19:05:00,54.5,22.9,30.21,NNW,338,3.6,3.6,29,0.00,,,0.00,WUHU216HW,2013-03-06 01:05:00,
2013-03-05 19:10:00,54.4,22.7,30.22,NW,315,1.3,3.6,29,0.00,,,0.00,WUHU216HW,2013-03-06 01:10:00,
2013-03-05 19:15:00,54.4,22.7,30.22,NNW,338,0.9,2.9,29,0.00,,,0.00,WUHU216HW,2013-03-06 01:15:00,
2013-03-05 19:20:00,54.2,22.5,30.22,NNE,23,1.6,2.5,29,0.00,,,0.00,WUHU216HW,2013-03-06 01:20:00,
2013-03-05 19:25:00,54.0,23.3,30.22,West,270,1.1,3.4,30,0.00,,,0.00,WUHU216HW,2013-03-06 01:25:00,
2013-03-05 19:30:00,54.0,23.3,30.22,WNW,293,0.4,3.4,30,0.00,,,0.00,WUHU216HW,2013-03-06 01:30:00,
2013-03-05 19:35:00,53.8,23.2,30.22,NNW,338,0.4,1.3,30,0.00,,,0.00,WUHU216HW,2013-03-06 01:35:00,
2013-03-05 19:40:00,53.8,23.9,30.22,NNW,338,0.0,2.2,31,0.00,,,0.00,WUHU216HW,2013-03-06 01:40:00,
2013-03-05 19:45:00,53.6,23.8,30.22,NNW,338,0.0,2.2,31,0.00,,,0.00,WUHU216HW,2013-03-06 01:45:00,
2013-03-05 19:50:00,53.5,23.6,30.22,West,270,0.0,1.3,31,0.00,,,0.00,WUHU216HW,2013-03-06 01:50:00,
2013-03-05 19:55:00,53.3,24.1,30.22,West,270,0.0,0.4,32,0.00,,,0.00,WUHU216HW,2013-03-06 01:55:00,
2013-03-05 20:00:00,53.1,24.0,30.22,NNW,338,0.0,0.4,32,0.00,,,0.00,WUHU216HW,2013-03-06 02:00:00,
2013-03-05 20:05:00,52.9,23.8,30.23,NNW,338,0.0,0.4,32,0.00,,,0.00,WUHU216HW,2013-03-06 02:05:00,
2013-03-05 20:10:00,52.7,23.6,30.23,NNW,338,0.0,0.2,32,0.00,,,0.00,WUHU216HW,2013-03-06 02:10:00,
2013-03-05 20:15:00,52.4,23.3,30.23,NNW,338,0.0,0.0,32,0.00,,,0.00,WUHU216HW,2013-03-06 02:15:00,
2013-03-05 20:20:00,52.2,23.1,30.23,NNW,338,0.0,0.0,32,0.00,,,0.00,WUHU216HW,2013-03-06 02:20:00,
2013-03-05 20:25:00,51.8,22.8,30.23,NNW,338,0.0,0.4,32,0.00,,,0.00,WUHU216HW,2013-03-06 02:25:00,
2013-03-05 20:30:00,51.7,22.6,30.23,NNW,338,0.0,0.4,32,0.00,,,0.00,WUHU216HW,2013-03-06 02:30:00,
2013-03-05 20:35:00,51.5,22.5,30.23,North,0,0.0,0.4,32,0.00,,,0.00,WUHU216HW,2013-03-06 02:35:00,
2013-03-05 20:40:00,51.3,22.3,30.24,North,0,0.0,0.2,32,0.00,,,0.00,WUHU216HW,2013-03-06 02:40:00,
2013-03-05 20:45:00,51.1,22.9,30.24,North,0,0.0,0.0,33,0.00,,,0.00,WUHU216HW,2013-03-06 02:45:00,
2013-03-05 20:50:00,50.8,22.5,30.23,NW,315,0.0,0.0,33,0.00,,,0.00,WUHU216HW,2013-03-06 02:50:00,
2013-03-05 20:55:00,50.6,22.3,30.23,NNE,23,0.0,0.2,33,0.00,,,0.00,WUHU216HW,2013-03-06 02:55:00,
2013-03-05 21:00:00,50.4,22.1,30.23,NW,315,0.0,0.9,33,0.00,,,0.00,WUHU216HW,2013-03-06 03:00:00,
2013-03-05 21:05:00,50.4,22.9,30.24,NE,45,0.2,0.9,34,0.00,,,0.00,WUHU216HW,2013-03-06 03:05:00,
2013-03-05 21:10:00,50.4,22.9,30.24,North,0,0.0,0.7,34,0.00,,,0.00,WUHU216HW,2013-03-06 03:10:00,
2013-03-05 21:15:00,50.2,22.7,30.24,North,0,0.0,0.4,34,0.00,,,0.00,WUHU216HW,2013-03-06 03:15:00,
2013-03-05 21:20:00,50.0,24.0,30.24,NNE,23,0.0,1.1,36,0.00,,,0.00,WUHU216HW,2013-03-06 03:20:00,
2013-03-05 21:25:00,49.9,23.8,30.24,North,0,0.7,1.1,36,0.00,,,0.00,WUHU216HW,2013-03-06 03:25:00,
2013-03-05 21:30:00,49.9,24.4,30.24,NNW,338,0.2,0.9,37,0.00,,,0.00,WUHU216HW,2013-03-06 03:30:00,
2013-03-05 21:35:00,49.7,24.3,30.25,NW,315,0.0,1.8,37,0.00,,,0.00,WUHU216HW,2013-03-06 03:35:00,
2013-03-05 21:40:00,49.5,24.1,30.25,NE,45,0.0,1.8,37,0.00,,,0.00,WUHU216HW,2013-03-06 03:40:00,
2013-03-05 21:45:00,49.3,24.7,30.25,NE,45,0.0,0.0,38,0.00,,,0.00,WUHU216HW,2013-03-06 03:45:00,
2013-03-05 21:50:00,49.3,24.7,30.26,WNW,293,0.4,0.4,38,0.00,,,0.00,WUHU216HW,2013-03-06 03:50:00,
2013-03-05 21:55:00,49.1,24.5,30.26,WNW,293,0.0,0.4,38,0.00,,,0.00,WUHU216HW,2013-03-06 03:55:00,
2013-03-05 22:00:00,48.8,24.1,30.26,WNW,293,0.0,0.2,38,0.00,,,0.00,WUHU216HW,2013-03-06 04:00:00,
2013-03-05 22:05:00,48.6,24.0,30.26,WNW,293,0.0,0.2,38,0.00,,,0.00,WUHU216HW,2013-03-06 04:05:00,
2013-03-05 22:10:00,48.4,24.5,30.25,WNW,293,0.0,0.0,39,0.00,,,0.00,WUHU216HW,2013-03-06 04:10:00,
2013-03-05 22:15:00,48.2,24.4,30.26,WNW,293,0.0,0.0,39,0.00,,,0.00,WUHU216HW,2013-03-06 04:15:00,
2013-03-05 22:20:00,48.1,24.2,30.26,WNW,293,0.0,0.0,39,0.00,,,0.00,WUHU216HW,2013-03-06 04:20:00,
2013-03-05 22:25:00,47.9,24.7,30.26,WNW,293,0.0,0.0,40,0.00,,,0.00,WUHU216HW,2013-03-06 04:25:00,
2013-03-05 22:30:00,47.5,24.4,30.26,WNW,293,0.0,0.4,40,0.00,,,0.00,WUHU216HW,2013-03-06 04:30:00,
2013-03-05 22:35:00,47.3,24.2,30.26,NW,315,0.4,0.4,40,0.00,,,0.00,WUHU216HW,2013-03-06 04:35:00,
2013-03-05 22:40:00,47.2,24.6,30.26,NNW,338,0.0,0.4,41,0.00,,,0.00,WUHU216HW,2013-03-06 04:40:00,
2013-03-05 22:45:00,47.2,24.6,30.26,ENE,68,0.4,0.4,41,0.00,,,0.00,WUHU216HW,2013-03-06 04:45:00,
2013-03-05 22:50:00,47.2,24.6,30.26,NNE,23,0.0,1.1,41,0.00,,,0.00,WUHU216HW,2013-03-06 04:50:00,
2013-03-05 22:55:00,47.3,24.8,30.26,NNW,338,0.2,1.3,41,0.00,,,0.00,WUHU216HW,2013-03-06 04:55:00,
2013-03-05 23:00:00,47.5,24.4,30.26,NNW,338,0.0,1.3,40,0.00,,,0.00,WUHU216HW,2013-03-06 05:00:00,
2013-03-05 23:05:00,47.5,24.4,30.26,NNE,23,0.7,1.3,40,0.00,,,0.00,WUHU216HW,2013-03-06 05:05:00,
2013-03-05 23:10:00,47.5,24.4,30.25,North,0,0.2,0.7,40,0.00,,,0.00,WUHU216HW,2013-03-06 05:10:00,
2013-03-05 23:15:00,47.3,24.2,30.25,NNE,23,0.0,0.4,40,0.00,,,0.00,WUHU216HW,2013-03-06 05:15:00,
2013-03-05 23:20:00,47.3,24.2,30.26,NNE,23,0.2,0.4,40,0.00,,,0.00,WUHU216HW,2013-03-06 05:20:00,
2013-03-05 23:25:00,47.2,24.6,30.26,NW,315,0.2,0.4,41,0.00,,,0.00,WUHU216HW,2013-03-06 05:25:00,
2013-03-05 23:30:00,47.2,24.6,30.26,NW,315,0.0,0.4,41,0.00,,,0.00,WUHU216HW,2013-03-06 05:30:00,
2013-03-05 23:35:00,47.0,24.4,30.26,NNW,338,0.4,0.4,41,0.00,,,0.00,WUHU216HW,2013-03-06 05:35:00,
2013-03-05 23:40:00,46.8,24.3,30.27,North,0,0.4,0.4,41,0.00,,,0.00,WUHU216HW,2013-03-06 05:40:00,
2013-03-05 23:45:00,46.8,24.3,30.27,WNW,293,0.2,0.7,41,0.00,,,0.00,WUHU216HW,2013-03-06 05:45:00,
2013-03-05 23:50:00,46.6,24.7,30.27,NW,315,0.0,0.7,42,0.00,,,0.00,WUHU216HW,2013-03-06 05:50:00,
2013-03-05 23:55:00,46.6,24.7,30.26,NW,315,0.0,0.4,42,0.00,,,0.00,WUHU216HW,2013-03-06 05:55:00,